Weather History for KRAP - April, 2013

Change the Weather History Date:

Monday, April 29, 2013

  Actual Average Record
Temperature  
Mean Temperature 58 °F 50 °F  
Max Temperature 75 °F 63 °F 85 °F (1951)
Min Temperature 41 °F 36 °F 11 °F (1950)
Degree Days  
Heating Degree Days 7 16  
Month to date heating degree days 821 587  
Since 1 July heating degree days 6778 6715  
Cooling Degree Days 0 0  
Month to date cooling degree days 0 0  
Year to date cooling degree days 0 0  
Growing Degree Days 10 (Base 50)    
Moisture  
Dew Point 38 °F    
Average Humidity 58    
Maximum Humidity 96    
Minimum Humidity 19    
Precipitation  
Precipitation 0.00 in 0.09 in 0.95 in (1953)
Month to date precipitation 3.03 1.71  
Year to date precipitation 4.46 3.38  
Snow  
Snow 0.00 in 0.20 in 4.80 in (1950)
Month to date snowfall 43.4 7.7  
Since 1 July snowfall 76.7 39.8  
Snow Depth 0.00 in    
Sea Level Pressure  
Sea Level Pressure 29.59 in    
Wind  
Wind Speed 18 mph (SSW)    
Max Wind Speed 53 mph    
Max Gust Speed 63 mph    
Visibility 10 miles    
Events      
T = Trace of Precipitation, MM = Missing Value Source: NWS Daily Summary

Daily Weather History Graph

Daily Weather History Graph

Search for Another Location

Airport or City:

Trip Planner

Search our weather history database for the weather conditions in past years. The results will help you decide how hot, cold, wet, or windy it might be!

Date:

Astronomy

Apr. 29, 2013 Rise Set
Actual Time 5:46 AM MDT 7:53 PM MDT
Civil Twilight 5:14 AM MDT 8:25 PM MDT
Nautical Twilight 4:35 AM MDT 9:04 PM MDT
Astronomical Twilight 3:53 AM MDT 9:47 PM MDT
Moon No Moon Rise 9:05 AM MDT (4/29)
Length of Visible Light 15h 10m
Length of Day
14h 07m
Waning Gibbous, 79% of the Moon is Illuminated
Apr 29
Waning Gibbous
May 2
Last Quarter
May 9
New
May 17
First Quarter
May 24
Full

Hourly Weather History & Observations

Time (MDT) Temp. Windchill Dew Point Humidity Pressure Visibility Wind Dir Wind Speed Gust Speed Precip Events Conditions
12:52 AM 46.0 °F 43.1 °F 43.0 °F 89% 29.86 in 10.0 mi SW 5.8 mph - N/A   Mostly Cloudy
1:52 AM 44.1 °F 39.5 °F 41.0 °F 89% 29.83 in 10.0 mi SSE 8.1 mph - N/A   Mostly Cloudy
2:52 AM 42.1 °F 37.7 °F 41.0 °F 96% 29.82 in 10.0 mi SE 6.9 mph - N/A   Clear
3:52 AM 44.1 °F 37.7 °F 41.0 °F 89% 29.81 in 10.0 mi South 12.7 mph - N/A   Clear
4:52 AM 42.1 °F 35.7 °F 39.9 °F 92% 29.79 in 10.0 mi South 11.5 mph - N/A   Clear
5:52 AM 45.0 °F 38.5 °F 39.9 °F 82% 29.76 in 10.0 mi South 13.8 mph - N/A   Clear
6:52 AM 46.9 °F - 39.9 °F 77% 29.75 in 10.0 mi South 12.7 mph - N/A   Clear
7:52 AM 51.1 °F - 43.0 °F 74% 29.73 in 10.0 mi South 15.0 mph - N/A   Clear
8:52 AM 55.9 °F - 42.1 °F 60% 29.69 in 10.0 mi South 18.4 mph 24.2 mph N/A   Clear
9:52 AM 60.1 °F - 39.9 °F 47% 29.63 in 10.0 mi South 21.9 mph 27.6 mph N/A   Clear
10:52 AM 61.0 °F - 41.0 °F 48% 29.60 in 10.0 mi South 19.6 mph - N/A   Clear
11:52 AM 64.9 °F - 42.1 °F 43% 29.56 in 10.0 mi SSE 12.7 mph 23.0 mph N/A   Clear
12:52 PM 68.0 °F - 39.9 °F 36% 29.52 in 10.0 mi South 17.3 mph - N/A   Clear
1:52 PM 72.0 °F - 37.0 °F 28% 29.47 in 10.0 mi SSW 15.0 mph 25.3 mph N/A   Clear
2:52 PM 72.0 °F - 30.0 °F 21% 29.44 in 10.0 mi West 11.5 mph - N/A   Clear
3:52 PM 75.0 °F - 30.9 °F 20% 29.41 in 10.0 mi WSW 11.5 mph - N/A   Clear
4:52 PM 73.0 °F - 30.0 °F 20% 29.37 in 10.0 mi South 10.4 mph - N/A   Clear
5:52 PM 73.0 °F - 35.1 °F 25% 29.34 in 10.0 mi SSE 9.2 mph - N/A   Clear
6:52 PM 69.1 °F - 35.1 °F 29% 29.32 in 10.0 mi South 6.9 mph - N/A   Mostly Cloudy
7:52 PM 66.0 °F - 33.1 °F 29% 29.32 in 10.0 mi WNW 12.7 mph 17.3 mph N/A   Scattered Clouds
8:52 PM 51.1 °F - 39.9 °F 66% 29.43 in 10.0 mi NNW 49.5 mph 62.1 mph N/A   Clear
9:52 PM 48.0 °F - 39.0 °F 71% 29.51 in 10.0 mi NNW 38.0 mph 50.6 mph N/A   Scattered Clouds
10:52 PM 46.9 °F - 37.0 °F 68% 29.56 in 10.0 mi NNW 39.1 mph 47.2 mph N/A   Clear
11:52 PM 45.0 °F 34.9 °F 37.0 °F 74% 29.58 in 10.0 mi NNW 32.2 mph 41.4 mph N/A   Clear